Current weather by "City, St" or "zip code"  
 

Current Conditions: London, London-Corbin Airport-Magee Field, KY

Rain Fog/Mist


66.0 F

Last Updated on Oct 23 2020, 10:53 pm EDT
Humidity: 96%
Wind Speed: W 10.4 mph
Barometer 30.07 in
Dewpoint: 64.9 F
Visibility: 4.00 mi
Precip: --
Heat Index: NA
Wind Chill: NA
Current conditions at:

London, London-Corbin Airport-Magee Field, KY (KLOZ)

Lat: 37.08944 Lon: 84.06861

Local Radar Image active severe weather and emergency alerts image image weather storm and storm spotter reports image weather observation monitoring service image
Local
Radar
Active
Alerts
Storm Reports Obs
Monitoring

Sign-up For Email & Text Message Weather Alert Notification Services



Advertise Here

Observation History for London, London-Corbin Airport-Magee Field, KY


Time Wind
(mph)
Vis
(mi)
Weather Precip (in) Temperature (F) Relative
Humidity
Wind
Chill
(F)
Heat
Index
(F)
Pressure
Air Dwpt altimeter
(in)
sea level
(mb)
Rmks
10:53 pm EDT W 10.4 4.00 Rain Fog/Mist -- 66.0 64.9 96% NA NA 30.07 1017.3
9:53 pm EDT S 4.6 10.00 Mostly Cloudy -- 67.0 63.0 87% NA NA 30.03 1016.0
8:53 pm EDT N 0.0 7.00 Partly Cloudy -- 67.0 63.0 87% NA NA 30.03 1016.1
7:53 pm EDT S 3.5 10.00 Fair -- 69.0 63.0 81% NA NA 30.03 1016.1
6:53 pm EDT SW 3.5 10.00 Fair -- 73.0 63.0 71% NA NA 30.02 1015.8
5:53 pm EDT S 4.6 10.00 Fair -- 75.0 63.0 66% NA NA 30.02 1015.7
4:53 pm EDT S 5.8 10.00 Fair -- 74.0 63.0 69% NA NA 30.04 1016.5
3:53 pm EDT SW 8.1 10.00 Fair 00.01 74.0 64.0 71% NA NA 30.07 1017.3
2:53 pm EDT W 12.7 G 19.6 10.00 Light Rain Trace 74.0 64.0 71% NA NA 30.08 1017.9
1:53 pm EDT SW 5.8 10.00 Mostly Cloudy -- 76.0 62.1 62% NA NA 30.09 1018.0
12:53 pm EDT SW 6.9 10.00 Mostly Cloudy -- 75.0 61.0 62% NA NA 30.12 1019.2
11:53 am EDT 10.00 Mostly Cloudy -- 73.0 61.0 66% NA NA 30.14 1019.9
10:53 am EDT S 6.9 10.00 Overcast -- 68.0 59.0 73% NA NA 30.16 1020.4
9:53 am EDT SE 3.5 10.00 A Few Clouds -- 64.0 59.0 84% NA NA 30.16 1020.5
8:53 am EDT N 0.0 10.00 Fair -- 58.0 55.9 93% NA NA 30.15 1020.2
7:53 am EDT 10.00 Fair -- 53.0 52.0 96% NA NA 30.15 1020.2
6:53 am EDT N 0.0 10.00 Fair -- 55.0 53.1 93% NA NA 30.14 1019.7
5:53 am EDT N 0.0 10.00 Fair -- 56.0 54.0 93% NA NA 30.13 1019.2
4:53 am EDT N 0.0 10.00 Fair -- 56.0 54.0 93% NA NA 30.12 1018.8
3:53 am EDT N 0.0 10.00 Fair -- 56.0 54.0 93% NA NA 30.11 1018.7
2:53 am EDT N 0.0 10.00 Fair -- 56.0 55.0 97% NA NA 30.12 1018.9
1:53 am EDT N 0.0 10.00 Fair -- 57.0 55.0 93% NA NA 30.12 1019.0
12:53 am EDT N 0.0 10.00 Fair -- 58.0 55.9 93% NA NA 30.13 1019.4
11:53 pm EDT N 0.0 10.00 Fair -- 59.0 57.0 93% NA NA 30.14 1019.6

Regional Weather Observation


Somerset, Somerset-Pulaski County - J.T. Wilson Field Airport, KY (KSME)

Rain
64.0 F

Madison Airport, KY (KI39)

Fair
84.0 F

Stuart Powell Field Airport, KY (KDVK)

Mostly Cloudy
63.0 F

Monticello, Wayne County Airport, KY (KEKQ)

Light Rain
64.0 F

Jackson, Carroll Airport, KY (KJKL)

A Few Clouds
68.0 F

Middlesboro, Middlesboro-Bell County Airport, KY (K1A6)

Fair
62.0 F